Location: Fontevrault
(47.1823°N, 0.0493°E)
Time: 09:52:53
(UTC+00:00)

Lacrosse 5 - Pass Details

Date: 16 June 2021
Orbit: 715 x 724 km, 57.0° (Epoch: 28 July)

Event Time Altitude Azimuth Distance (km) Brightness Sun altitude
Rises 21:04:34 0° 305° (NW) 3,126 7.0 -9.1°
Reaches altitude 10° 21:07:00 10° 300° (WNW) 2,204 5.7 -9.3°
Maximum altitude 21:11:52 48° 227° (SW) 938 2.4 -9.9°
Enters shadow 21:16:11 13° 156° (SSE) 2,006 3.5 -10.3°
